Location: Dalton Gardens
(47.7327°N, 116.7697°W)
Time: 00:35:24
(UTC+00:00)

BlueWalker 3 - Visible Passes

Search period start: 29 November 2022 00:00
Search period end: 09 December 2022 00:00
Orbit: 500 x 519 km, 53.2° (Epoch: 28 November)

Date Brightness Start Highest point End Pass type
(mag) Time Alt. Az. Time Alt. Az. Time Alt. Az.
29 Nov 2.1 01:05:11 10° WSW 01:09:05 67° NNW 01:11:54 18° ENE visible
29 Nov 3.8 02:44:33 10° WNW 02:46:44 26° NW 02:46:44 26° NW visible
30 Nov 2.2 00:46:51 10° WSW 00:50:44 65° NNW 00:54:16 12° ENE visible
30 Nov 3.3 02:26:14 10° WNW 02:29:05 32° NNW 02:29:05 32° NNW visible
01 Dec 2.2 00:28:29 10° WSW 00:32:23 62° NNW 00:36:16 10° ENE visible
01 Dec 2.9 02:07:53 10° WNW 02:11:26 35° N 02:11:26 35° N visible
02 Dec 2.8 01:49:32 10° WNW 01:53:11 35° N 01:53:46 33° NNE visible
02 Dec 5.3 03:28:30 10° WNW 03:28:35 10° WNW 03:28:35 10° WNW visible
03 Dec 2.9 01:31:11 10° WNW 01:34:49 35° N 01:36:07 28° NE visible
03 Dec 4.8 03:10:08 10° WNW 03:10:57 15° WNW 03:10:57 15° WNW visible
04 Dec 2.8 01:12:49 10° WNW 01:16:28 36° N 01:18:29 21° NE visible
04 Dec 4.1 02:51:45 10° WNW 02:53:19 22° NW 02:53:19 22° NW visible
05 Dec 2.8 00:54:27 10° WNW 00:58:06 36° N 01:00:54 15° ENE visible
05 Dec 3.4 02:33:21 10° WNW 02:35:43 34° NW 02:35:43 34° NW visible
06 Dec 2.8 00:36:04 10° WNW 00:39:44 36° N 00:43:21 10° ENE visible
06 Dec 2.4 02:14:58 10° WNW 02:18:11 53° NNW 02:18:11 53° NNW visible
07 Dec 1.8 01:56:33 10° WNW 02:00:28 66° NNE 02:00:43 64° NE visible
07 Dec 5.4 03:35:31 10° WNW 03:35:34 10° WNW 03:35:34 10° WNW visible
08 Dec 1.9 01:38:08 10° WNW 01:42:03 69° NNE 01:43:22 39° E visible
08 Dec 4.9 03:17:08 10° WNW 03:18:13 16° W 03:18:13 16° W visible
